Regional Weather Roundup
Issued by NWS Charleston, SC

Current Version | Previous Version | Graphics & Text | Print | Product List | Glossary On
Versions: 1 2 3 4 5 6 7 8 9 10 11 12 13 14 15 16 17 18 19 20 21 22 23 24 25 26 27 28 29 30 31 32 33 34 35 36 37 38 39 40 41 42 43 44 45 46 47 48 49 50
623 ASUS42 KCHS 090612 RWRCHS REGIONAL WEATHER ROUNDUP NATIONAL WEATHER SERVICE CHARLESTON SC 100 AM EST TUE FEB 09 2016 NOTE: "FAIR" INDICATES FEW OR NO CLOUDS BELOW 12,000 FEET WITH NO SIGNIFICANT WEATHER AND/OR OBSTRUCTIONS TO VISIBILITY. NOT ALL STATIONS ARE QUALITY CONTROLLED BY THE NATIONAL WEATHER SERVICE. USE DATA WITH CAUTION...ESPECIALLY DEWPOINT OBSERVATIONS. NOTICE: OBSERVATIONS FOR THE SAVANNAH-HILTON HEAD INTERNATIONAL AIRPORT /KSAV/ HAVE BEEN TEMPORARILY REMOVED DUE TO AN ERRONEOUS TEMPERATURE SENSOR. THE OBSERVATION WILL BE REINTRODUCED ONCE REPAIRS ARE COMPLETE. SCZ027-030-031-034>040-042>050-090700- ...SOUTHEAST SOUTH CAROLINA... CITY SKY/WX TMP DP RH WIND PRES REMARKS N CHARLESTON NOT AVBL WATERFRONT PRK N/A 45 40 82 W5 29.58R MOUNT PLEASANT FAIR 45 37 76 W8 29.73S JOHNS ISLAND FAIR 43 37 81 W7 29.75R PINOPOLIS N/A 46 36 66 W15 29.62F MONCKS CORNER FAIR 39 30 70 W3 29.72R SUMMERVILLE FAIR 41 36 81 W7 29.75R BEAUFORT MCAS CLEAR 43 34 70 W10 29.78R 6HR MIN TEMP: 43; 6HR MAX TEMP: 48; 6HR PCP: 0.04; BEAUFORT ARPT FAIR 43 34 70 W12 29.77R HILTON HEAD IS PTCLDY 45 36 70 W7 29.80R WALTERBORO CLEAR 43 36 75 W7 29.77R ALLENDALE FAIR 39 32 75 CALM 29.76S ...SOUTHERN MIDLANDS AND PEE DEE... CITY SKY/WX TMP DP RH WIND PRES REMARKS GEORGETOWN NOT AVBL KINGSTREE NOT AVBL ORANGEBURG CLEAR 41 27 57 W9 29.73S 6HR MIN TEMP: 41; 6HR MAX TEMP: 45; BARNWELL FAIR 39 30 70 SW7 29.77R WCI 34 AIKEN FAIR 37 23 56 W10G16 29.77R WCI 30 MANNING FAIR 43 28 56 W6 29.71R COLUMBIA CLEAR 36 26 67 W7 29.72R WCI 30 6HR MIN TEMP: 35; 6HR MAX TEMP: 45; SUMTER PTCLDY 39 29 68 W9 29.68R WCI 33 6HR MIN TEMP: 38; 6HR MAX TEMP: 44; FLORENCE CLEAR 41 35 79 W12 29.65S 6HR MIN TEMP: 40; 6HR MAX TEMP: 44; MYRTLE BEACH PTCLDY 45 37 76 W12 29.69S N MYRTLE BEACH CLOUDY 46 41 82 SW6 29.65S 6HR MIN TEMP: 46; 6HR MAX TEMP: 53; 6HR PCP: 0.02; $$ GAZ063-065-086>088-099>101-113>116-118-119-134>141-150-090700- ...SOUTHEAST GEORGIA... CITY SKY/WX TMP DP RH WIND PRES REMARKS SAVANNAH ARPT CLEAR 40 35 83 W8 29.81R WCI 34 6HR MIN TEMP: 40; 6HR MAX TEMP: 49; 6HR PCP: 0.07; HUNTER AAF CLEAR 40 37 91 W8 29.78R WCI 34 6HR MIN TEMP: 39; 6HR MAX TEMP: 49; 6HR PCP: 0.04; FORT STEWART CLEAR 42 36 80 W7 29.80R 6HR MIN TEMP: 41; 6HR MAX TEMP: 47; 6HR PCP: 0.08; STATESBORO CLEAR 43 30 59 W6 29.81R SYLVANIA CLEAR 38 37 97 W3 29.79S CLAXTON FAIR 40 36 87 SW5 29.82R WCI 37 ...CSRA...CENTRAL AND FAR SOUTHEAST GEORGIA... CITY SKY/WX TMP DP RH WIND PRES REMARKS THOMSON CLEAR 42 26 53 W16G26 29.83R AUGUSTA-BUSH PTCLDY 40 24 53 W10 29.78R WCI 33 6HR MIN TEMP: 37; 6HR MAX TEMP: 46; AUGUSTA-DANIEL PTCLDY 42 23 46 W8G16 29.77R SWAINSBORO FAIR 39 30 70 NW9 29.82R WCI 33 VIDALIA PTCLDY 41 30 65 W7 29.82S EASTMAN FAIR 43 26 52 NW10 29.88R HAZLEHURST FAIR 39 34 80 CALM 29.84S ALMA CLEAR 41 32 70 W6 29.85R 6HR MIN TEMP: 41; 6HR MAX TEMP: 48; WAYCROSS PTCLDY 45 35 66 NW7 29.85S JESUP FAIR 43 37 81 NW5 29.84S BAXLEY FAIR 43 34 70 W5 29.84S BRUNSWICK CLOUDY 45 43 93 W6 29.85R SAINT SIMONS CLOUDY 47 39 74 W8 29.83S 6HR MIN TEMP: 47; 6HR MAX TEMP: 58; 6HR PCP: 0.12; $$ SCZ027-028-034-036>038-045-046-048>050-GAZ119-141-090700- ...LAKE AND SUPPLEMENTAL COASTAL OBSERVATIONS... STATION/POSITION TIME TEMP WIND PRES WAVE SWELL AIR SEA DIR/SP/G HT/PER HT/PER/DIR (UTC) (F) (DEG/KT/KT) (MB) (FT/S) (FT/S/D) WINYAH BAY NOT AVBL LAKE MURRAY 0500 44 270/ 13/ 16 1005.4S ACE BASIN NERRS 0445 44 290/ 4 1007.0 FORT PULASKI 0500 47 52 280/ 13/ 15 1008.8R SAPELO ISLAND 0500 48 250/ 9 1009.0S $$ ANZ835-935-AMZ111-154-330-350-352-354-370-450-454-472-090700- ...C-MAN AND BUOY OBSERVATIONS... STATION/POSITION TIME TEMP WIND PRES WAVE SWELL AIR SEA DIR/SP/G HT/PER HT/PER/DIR (UTC) (F) (DEG/KT/KT) (MB) (FT/S) (FT/S/D) BUOY 41004 0550 53 65 280/ 21/ 27 1005.4F 6/ 8 3/13 BUOY 41008 0550 51 55 290/ 19/ 25 1009.4R 3/ 7 2/170/ 7 FOLLY BEACH CMAN 0600 43 270/ 6/ 8 1007.2R CAPERS NEARSHORE 0508 49 270/ 16/ 21 1005.9R FRIPP NEARSHORE 0500 49 290/ 21/ 23 1007.6R STATION/POSITION TIME TEMP WIND PRES WAVE SWELL AIR SEA DIR/SP/G HT/PER HT/PER/DIR (UTC) (F) (DEG/KT/KT) (MB) (FT/S) (FT/S/D) 5E ST. MARYS GA 0521 56 N/A 3/15 2/ 90/15 FRYING PAN BUOY 0500 50 61 280/ 23/ 29 1004.8R BUOY 41025 0550 49 73 320/ 14/ 19 1002.4S 11/16 10/ 90/16 CAPE LOOKOUT NC NOT AVBL BUOY 41002 0550 60 69 260/ 25/ 33 N/A 14/ 7 8/340/16 BUOY 41010 0520 68 73 1008.9F ST AUGUSTINE FL 0600 52 57 300/ 6/ 7 1012.0R $$

USA.gov is the U.S. government's official web portal to all federal, state and local government web resources and services.